Regional Weather Roundup
Issued by NWS Mobile, AL

Current Version | Previous Version | Text Only | Print | Product List | Glossary On
Versions: 1 2 3 4 5 6 7 8 9 10 11 12 13 14 15 16 17 18 19 20 21 22 23 24 25 26 27
000
ASUS44 KMOB 291212
RWRMOB
REGIONAL WEATHER ROUNDUP
NATIONAL WEATHER SERVICE MOBILE AL
700 AM CDT MON MAY 29 2017

NOTE: "FAIR" INDICATES FEW OR NO CLOUDS BELOW 12,000 FEET WITH NO
      SIGNIFICANT WEATHER AND/OR OBSTRUCTIONS TO VISIBILITY.

  * THESE STATIONS ARE PART OF THE UNIVERSITY OF SOUTH ALABAMA
    MESONET AND ARE NOT UNDER NWS OR FAA QUALITY CONTROL.

ALZ061>064-291300-
COASTAL ALABAMA

CITY           SKY/WX    TMP DP  RH WIND       PRES   REMARKS
MOBILE REG APT CLOUDY    74  71  91 SE8       30.00R
6HR MIN TEMP:  74; 6HR MAX TEMP:  77; 6HR PCP:  0.03;

BROOKLEY FIELD CLOUDY    76  73  91 SE13      30.01R
6HR MIN TEMP:  74; 6HR MAX TEMP:  79; 6HR PCP:  0.38;

USA CAMPUS*      N/A     73  72  94 E6        30.00R
DOG RIVER*       N/A     73  72  94 SE7       30.76R


CITY           SKY/WX    TMP DP  RH WIND       PRES   REMARKS
GULF SHORES    CLOUDY    70  70 100 E7        30.01F

$$

ALZ051>060-291300-
INTERIOR SOUTHWEST AND SOUTH CENTRAL ALABAMA

CITY           SKY/WX    TMP DP  RH WIND       PRES   REMARKS
GREENVILLE     CLOUDY    72  68  87 CALM      30.02R
6HR MIN TEMP:  69; 6HR MAX TEMP:  72;

EVERGREEN      LGT RAIN  72  70  93 SE3       30.01R
6HR MIN TEMP:  70; 6HR MAX TEMP:  72; 6HR PCP:  0.01;

ATMORE*          N/A     73  72  94 SE12      30.00F
ANDALUSIA/OPP  CLOUDY    74  70  87 S3        30.02R
6HR MIN TEMP:  73; 6HR MAX TEMP:  75;

ANDALUSIA*       N/A     72  70  94 SE2       30.02R
FLORALA APT    CLOUDY    72  69  90 SW5       30.05R
6HR MIN TEMP:  70; 6HR MAX TEMP:  73;

FLORALA*         N/A     72  72 100 CALM      30.75R

$$

FLZ001>006-291300-
WESTERN FLORIDA PANHANDLE

CITY           SKY/WX    TMP DP  RH WIND       PRES   REMARKS
PENSACOLA      CLOUDY    73  69  87 CALM      30.03R
6HR MIN TEMP:  72; 6HR MAX TEMP:  78; 6HR PCP:  0.55;

NAS PENSACOLA  TSTM      72  70  93 N8        30.01S
6HR MIN TEMP:  70; 6HR MAX TEMP:  77; 6HR PCP:  0.59;

MILTON         CLOUDY    69  66  90 W10       30.06R THUNDER
6HR MIN TEMP:  68; 6HR MAX TEMP:  74; 6HR PCP:  0.88;

WHTNG S FIELD    N/A    N/A N/A N/A MISG      30.06R


CITY           SKY/WX    TMP DP  RH WIND       PRES   REMARKS
JAY*             N/A     73  72  94 SE8       30.03R
DUKE FIELD     TSTM      75  72  88 SW10      30.05R
CRESTVIEW      CLOUDY    74  71  91 SW6       30.07R
6HR MIN TEMP:  70; 6HR MAX TEMP:  73;

VALPARAISO     TSTM      77  72  86 W16G24    30.06R FOG
DESTIN         LGT RAIN  80  80 100 S3        30.05R
6HR MIN TEMP:  78; 6HR MAX TEMP:  82; 6HR PCP: TRACE;


$$

MSZ076-079-291300-
INTERIOR SOUTHEAST MISSISSIPPI

CITY           SKY/WX    TMP DP  RH WIND       PRES   REMARKS
LEAKESVILLE*   NOT AVBL
AGRICOLA*        N/A     73  73 100 CALM      29.98R

$$

MARINE OBSERVATIONS

STATION/POSITION TIME  TEMP    WIND        PRES    WAVE
                       AIR SEA DIR/SP/G            HT/PER
                 (UTC) (F)     (DEG/KT/KT) (MB)    (FT/S)
PASCAGOULA       1148   75     120/  5/  7 1015.5R
PETIT BOIS ISLND 1148   75     110/  7/ 10 1016.5R
GRAND BAY        1030   73     110/  5     1015.0S
KATRINA CUT      1130   77     100/ 12     1015.6R
CEDAR POINT      1130   76     120/ 15     1015.9R
E DAUPHIN ISLAND 1100   77      80/ 12/ 14 1014.8S
MIDDLE BAY LIGHT 1130   76     110/ 15     1015.2S
USCG MOBILE BAY  1148   75 79  130/  4/  7 1016.5R
STATE DOCKS      1148   75 78              1015.8R
MEAHER PARK      1130   73     100/  6     1015.9R
FORT MORGAN      1148   74      90/  8/  9   N/A
12 S ORANGE BCH  1150   77 78   70/  4/  6 1015.8R   3/ 6
PENSACOLA BAY    1148   72 80              1016.9R
64 S DAUPHIN ISL 1150   79 80  220/ 10/ 12 1016.5R   4/ 6
67 S FORT MORGAN 1130   78     240/ 12     1016.9R

$$

SELECTED LOCATIONS ACROSS THE REGION

CITY           SKY/WX    TMP DP  RH WIND       PRES   REMARKS
NEW ORLEANS    TSTM      68  67  96 W6        30.07F FOG
GULFPORT       CLOUDY    72  69  90 SW5       29.99R
PASCAGOULA AP  CLOUDY    73  70  90 CALM      30.00R
PASCAGOULA*    NOT AVBL
HATTIESBURG    CLOUDY    69  66  90 NW3       30.00R
LAUREL         CLOUDY    66  63  88 NW6       30.02R
MERIDIAN       CLOUDY    67  65  93 W3        30.01R
JACKSON        CLOUDY    66  64  93 S3        30.00R
MONTGOMERY     CLOUDY    72  66  81 S6        30.01R
TROY           MOSUNNY   71  70  96 CALM      30.02R
ASHFORD*         N/A     72  70  94 SE2       30.02R
DOTHAN         CLOUDY    74  73  97 S6        30.05R
PANAMA CITY    CLOUDY    75  74  96 CALM      30.04R FOG

$$





USA.gov is the U.S. government's official web portal to all federal, state and local government web resources and services.